Weather observations for the past three days for
Ardmore, Ardmore Municipal Airport
Metric (Imperial)
Date Time (cdt) Wind (kph) Vis. (km) Weather Sky Cond. Temperature (ºC) Relative Humidity Wind Chill (°C) Heat Index (°C) Pressure Precipitation (cm)
Air Dwpt 6 hour altimeter (cm) sea level (mb) 1 hr 3 hr 6 hr
Max. Min.
01 23:35 Calm 16.09 Fair CLR 26 19 65% 27 76.12 0.0
01 23:15 Calm 16.09 Fair CLR 26 20 70% 27 76.12 0.0
01 22:55 Calm 16.09 Fair CLR 27 19 62% 28 76.12 0.0
01 22:35 Calm 16.09 Fair CLR 28 19 58% 29 76.1 0.0
01 22:15 Calm 16.09 Fair CLR 29 19 55% 30 76.1 0.0
01 21:50 Calm 16.09 Fair CLR 29 19 55% 30 76.05 0.0
01 20:50 Calm 16.09 Fair CLR 32 18 43% 33 76 0.0
01 19:50 Calm 16.09 Fair CLR 33 18 41% 34 75.97 0.0
01 18:50 SE 13 G 22 16.09 Fair CLR 36 17 32% 37 76 0.0
01 17:50 SE 13 16.09 Fair CLR 37 16 29% 37 76 0.0
01 16:50 SE 13 G 24 16.09 Fair CLR 38 17 29% 39 76 0.0
01 15:50 S 13 G 24 16.09 Fair CLR 39 17 27% 40 76.05 0.0
01 14:50 SE 17 16.09 Fair CLR 37 17 31% 38 76.07 0.0
01 13:50 E 13 16.09 Partly Cloudy SCT060 39 19 31% 42 76.15 0.0
01 12:50 SE 13 16.09 Partly Cloudy SCT090 36 19 37% 38 76.23 0.0
01 11:50 Calm 16.09 Fair CLR 36 20 39% 39 76.28 0.0
01 10:50 Calm 16.09 Fair CLR 34 20 44% 36 76.3 0.0
01 09:50 Calm 16.09 Fair CLR 31 20 52% 33 76.33 0.0
01 08:50 Calm 16.09 Fair CLR 29 20 58% 31 76.33 0.0
01 07:50 Calm 16.09 Fair CLR 24 20 78% 24 76.3 0.0
01 06:50 Calm 16.09 Fair CLR 23 19 78% 76.25 0.0
01 06:35 Calm 16.09 Fair CLR 23 19 78% 76.25 0.0
01 06:15 Calm 16.09 Fair CLR 23 19 78% 76.25 0.0
01 05:55 Calm 16.09 Fair CLR 23 19 78% 76.23 0.0
01 05:35 Calm 16.09 Fair CLR 23 18 74% 76.23 0.0
01 05:15 Calm 16.09 Fair CLR 23 18 74% 76.23 0.0
01 04:55 Calm 16.09 Fair CLR 23 18 74% 76.23 0.0
01 04:35 Calm 16.09 Fair CLR 23 18 74% 76.23 0.0
01 04:15 Calm 16.09 Fair CLR 24 18 69% 25 76.23 0.0
01 03:55 Calm 16.09 Fair CLR 23 18 74% 76.23 0.0
01 03:35 Calm 16.09 Fair CLR 23 18 74% 76.2 0.0
01 03:15 Calm 16.09 Fair CLR 23 17 69% 76.2 0.0
01 02:55 Calm 16.09 Fair CLR 23 17 69% 76.2 0.0
01 02:35 Calm 16.09 Fair CLR 23 17 69% 76.2 0.0
01 02:15 Calm 16.09 Fair CLR 24 17 65% 25 76.2 0.0
01 01:55 Calm 16.09 Fair CLR 23 17 69% 76.2 0.0
01 01:35 Calm 16.09 Fair CLR 23 17 69% 76.2 0.0
01 01:15 Calm 16.09 Fair CLR 24 17 65% 25 76.17 0.0
01 00:55 Calm 16.09 Fair CLR 24 17 65% 25 76.17 0.0
01 00:35 Calm 16.09 Fair CLR 24 17 65% 25 76.17 0.0
01 00:15 Calm 16.09 Fair CLR 24 17 65% 25 76.15 0.0
31 23:55 Calm 16.09 Fair CLR 25 17 61% 26 76.15 0.0
31 23:35 Calm 16.09 Fair CLR 25 16 57% 26 76.12 0.0
31 23:15 Calm 16.09 Fair CLR 25 17 61% 26 76.12 0.0
31 22:55 Calm 16.09 Fair CLR 26 17 58% 27 76.12 0.0
31 22:35 Calm 16.09 Fair CLR 26 17 58% 27 76.12 0.0
31 22:15 Calm 16.09 Fair CLR 26 17 58% 27 76.12 0.0
31 21:50 Calm 16.09 Fair CLR 28 16 48% 28 76.1 0.0
31 20:50 Calm 16.09 Fair CLR 30 16 43% 30 76.05 0.0
31 19:50 Calm 16.09 Fair CLR 32 15 36% 32 76.02 0.0
31 18:50 S 13 G 22 16.09 Fair CLR 36 14 27% 35 76.02 0.0
31 17:50 SE 15 16.09 Fair CLR 38 15 25% 38 76.02 0.0
31 16:50 S 19 G 28 16.09 Fair CLR 39 14 23% 39 76.05 0.0
31 15:50 Vrbl 11 G 26 16.09 Fair CLR 38 13 22% 37 76.07 0.0
31 14:50 S 24 16.09 Fair CLR 39 15 24% 39 76.15 0.0
31 12:50 S 19 G 31 16.09 Fair CLR 38 16 27% 39 76.25 0.0
31 11:50 S 17 G 26 16.09 Fair CLR 37 18 33% 39 76.28 0.0
31 10:50 Calm 16.09 Fair CLR 35 20 41% 38 76.3 0.0
31 09:50 SW 9 16.09 Fair CLR 32 20 49% 34 76.3 0.0
31 07:50 Calm 16.09 Fair CLR 28 19 58% 29 76.3 0.0
31 06:50 Calm 16.09 Fair CLR 20 18 88% 76.15 0.0
31 06:35 Calm 16.09 Fair CLR 22 18 78% 76.15 0.0
31 06:10 Calm 16.09 Fair CLR 21 18 83% 76.12 0.0
31 05:55 Calm 16.09 Fair CLR 21 17 78% 76.12 0.0
31 05:35 Calm 16.09 Fair CLR 22 17 73% 76.12 0.0
31 05:15 Calm 16.09 Fair CLR 22 17 73% 76.12 0.0
31 04:55 Calm 16.09 Fair CLR 22 17 73% 76.12 0.0
31 04:35 Calm 16.09 Fair CLR 22 18 78% 76.1 0.0
31 04:15 Calm 16.09 Fair CLR 21 17 78% 76.1 0.0
31 03:55 Calm 16.09 Fair CLR 22 17 73% 76.07 0.0
31 03:35 Calm 16.09 Fair CLR 22 17 73% 76.07 0.0
31 03:15 Calm 16.09 Fair CLR 23 17 69% 76.07 0.0
31 02:55 Calm 16.09 Fair CLR 23 17 69% 76.07 0.0
31 02:35 Calm 16.09 Fair CLR 23 17 69% 76.07 0.0
31 02:15 Calm 16.09 Fair CLR 24 17 65% 25 76.07 0.0
31 01:55 Calm 16.09 Fair CLR 23 17 69% 76.07 0.0
31 01:35 Calm 16.09 Fair CLR 24 17 65% 25 76.07 0.0
31 01:15 Calm 16.09 Fair CLR 24 17 65% 25 76.07 0.0
31 00:55 Calm 16.09 Fair CLR 24 17 65% 25 76.07 0.0
31 00:35 Calm 16.09 Fair CLR 25 17 61% 26 76.07 0.0
31 00:15 Calm 16.09 Fair CLR 26 17 58% 27 76.05 0.0
30 23:55 Calm 16.09 Fair CLR 27 16 51% 27 76.05 0.0
30 23:35 Calm 16.09 Fair CLR 27 17 54% 28 76.05 0.0
30 23:15 Calm 16.09 Fair CLR 27 17 54% 28 76.05 0.0
30 22:55 Calm 16.09 Fair CLR 27 17 54% 28 76.05 0.0
30 22:35 Calm 16.09 Fair CLR 28 17 51% 29 76.02 0.0
30 22:15 Calm 16.09 Fair CLR 28 17 51% 29 76.02 0.0
30 15:50 SW 13 G 30 16.09 Fair CLR 40 15 23% 40 75.97 0.0
30 13:50 S 22 16.09 Fair CLR 40 17 26% 41 76.05 0.0
30 12:50 S 20 16.09 Fair CLR 38 19 33% 40 76.12 0.0
30 11:50 S 15 G 30 16.09 Fair CLR 37 19 35% 39 76.2 0.0
30 10:50 S 17 16.09 Fair CLR 36 20 39% 39 76.23 0.0
30 09:50 SE 11 16.09 Fair CLR 32 19 46% 33 76.23 0.0
30 08:50 Calm 16.09 Fair CLR 27 19 62% 28 76.25 0.0
30 07:50 Calm 16.09 Fair CLR 24 19 74% 25 76.23 0.0
30 06:50 Calm 16.09 Fair CLR 24 17 65% 25 76.17 0.0
30 06:35 Calm 16.09 Fair CLR 24 17 65% 25 76.15 0.0
30 06:15 Calm 16.09 Fair CLR 24 17 65% 25 76.15 0.0
30 05:55 Calm 16.09 Fair CLR 24 17 65% 25 76.15 0.0
30 05:35 Calm 16.09 Fair CLR 24 17 65% 25 76.12 0.0
30 05:15 Calm 16.09 Fair CLR 24 17 65% 25 76.12 0.0
30 04:35 Calm 16.09 Fair CLR 24 17 65% 25 76.12 0.0
30 04:15 Calm 16.09 Fair CLR 25 17 61% 26 76.12 0.0
30 03:55 Calm 16.09 Fair CLR 25 17 61% 26 76.12 0.0
30 03:35 Calm 16.09 Fair CLR 25 17 61% 26 76.12 0.0
30 03:15 Calm 16.09 Fair CLR 26 16 54% 27 76.12 0.0
30 02:55 Calm 16.09 Fair CLR 27 16 51% 27 76.12 0.0
30 02:35 Calm 16.09 Fair CLR 27 17 54% 28 76.12 0.0
30 02:15 Calm 16.09 Fair CLR 27 17 54% 28 76.12 0.0
30 01:55 Calm 16.09 Fair CLR 27 17 54% 28 76.12 0.0
30 01:35 Calm 16.09 Fair CLR 27 16 51% 27 76.12 0.0
30 01:15 Calm 16.09 Fair CLR 27 16 51% 27 76.12 0.0
30 00:55 Calm 16.09 Fair CLR 26 17 58% 27 76.12 0.0
30 00:35 Calm 16.09 Fair CLR 25 17 61% 26 76.12 0.0
30 00:15 Calm 16.09 Fair CLR 26 17 58% 27 76.12 0.0
29 23:55 Calm 16.09 Fair CLR 26 17 58% 27 76.12 0.0
Date Time (cdt) Wind (kph) Vis. (km) Weather Sky Cond. Air Dwpt Max. Min. Relative Humidity Wind Chill (°C) Heat Index (°C) altimeter (cm) sea level (mb) 1 hr 3 hr 6 hr
6 hour
Temperature (ºC) Pressure Precipitation (cm)